Tracking 30995 objects as of 7-Jul-2025
HD Live streaming from Space Station
objects crossing your sky now

STARLINK-1458

Track STARLINK-1458 now!
10-day predictions
STARLINK-1458 is classified as:


NORAD ID: 45675
Int'l Code: 2020-035U
Perigee: 553.4 km
Apogee: 555.3 km
Inclination: 53.1 °
Period: 95.6 minutes
Semi major axis: 6925 km
RCS: Unknown
Launch date: June 4, 2020
Source: United States (US)
Launch site: AIR FORCE EASTERN TEST RANGE (AFETR)
Your satellite tracking list
Your tracking list is empty




NASA's NSSDC Master Catalog

Two Line Element Set (TLE):
1 45675U 20035U   25187.71642188 -.00002186  00000-0 -12792-3 0  9990
2 45675  53.0559  90.8329 0001372 100.5887 259.5256 15.06402374281242
Source of the keplerian elements: AFSPC